Weather History for Medicine Lodge, KS

Change the Weather History Date:

Monday, April 21, 2014

  Actual Average Record
Temperature  
Mean Temperature 67 °F 58 °F  
Max Temperature 81 °F 70 °F 95 °F (1963)
Min Temperature 52 °F 46 °F 23 °F (1966)
Degree Days  
Heating Degree Days 0 8  
Month to date heating degree days 218 231  
Since 1 July heating degree days 4893 4328  
Cooling Degree Days 2 1  
Month to date cooling degree days 15 13  
Year to date cooling degree days 15 15  
Growing Degree Days 18 (Base 50)    
Moisture  
Dew Point 50 °F    
Average Humidity 64    
Maximum Humidity 100    
Minimum Humidity 28    
Precipitation  
Precipitation 0.00 in 0.09 in 0.71 in (1945)
Month to date precipitation 0.55 1.55  
Year to date precipitation 1.99 5.56  
Snow  
Snow 0.00 in 0.00 in - ()
Month to date snowfall 0.0 0.0  
Since 1 July snowfall 27.0 8.5  
Snow Depth 0.00 in    
Sea Level Pressure  
Sea Level Pressure 29.99 in    
Wind  
Wind Speed 10 mph (NNE)    
Max Wind Speed 26 mph    
Max Gust Speed 34 mph    
T = Trace of Precipitation, MM = Missing Value Source: NWS Daily Summary

Daily Weather History Graph

Daily Weather History Graph

Search for Another Location

Airport:

Trip Planner

Search our weather history database for the weather conditions in past years. The results will help you decide how hot, cold, wet, or windy it might be!

Date:

Astronomy

Apr. 21, 2014 Rise Set
Actual Time 6:51 AM CDT 8:14 PM CDT
Civil Twilight 6:24 AM CDT 8:42 PM CDT
Nautical Twilight 5:51 AM CDT 9:14 PM CDT
Astronomical Twilight 5:17 AM CDT 9:49 PM CDT
Moon 1:44 AM CDT (4/21) 12:21 PM CDT (4/21)
Length of Visible Light 14h 17m
Length of Day
13h 23m
Waning Gibbous, 57% of the Moon is Illuminated
Apr 21
Waning Gibbous
Apr 22
Last Quarter
Apr 29
New
May 6
First Quarter
May 14
Full

Hourly Weather History & Observations

Time (CDT) Temp. Dew Point Humidity Pressure Visibility Wind Dir Wind Speed Gust Speed Precip Events Conditions
12:56 AM 63.0 °F 55.0 °F 75% 29.95 in - South 9.2 mph - N/A   Unknown
1:56 AM 61.0 °F 55.0 °F 81% 29.94 in - South 5.8 mph - N/A   Unknown
2:56 AM 57.9 °F 53.1 °F 84% 29.95 in - Calm Calm - N/A   Unknown
3:56 AM 60.1 °F 54.0 °F 80% 29.94 in - Calm Calm - N/A   Unknown
4:56 AM 57.9 °F 55.0 °F 90% 29.93 in - SSE 4.6 mph - N/A   Unknown
5:56 AM 54.0 °F 53.1 °F 97% 29.95 in - Calm Calm - N/A   Unknown
6:56 AM 55.0 °F 54.0 °F 96% 29.98 in - North 4.6 mph - N/A   Unknown
7:56 AM 57.0 °F 55.9 °F 96% 30.00 in - North 3.5 mph - N/A   Unknown
8:56 AM 62.1 °F 57.0 °F 84% 30.01 in - North 6.9 mph - N/A   Unknown
9:56 AM 68.0 °F 55.9 °F 65% 29.99 in - NNE 10.4 mph - N/A   Unknown
10:56 AM 70.0 °F 55.9 °F 61% 29.99 in - North 5.8 mph - N/A   Unknown
11:56 AM 73.9 °F 53.1 °F 48% 30.01 in - NNE 23.0 mph 28.8 mph N/A   Unknown
12:56 PM 75.9 °F 51.1 °F 42% 30.00 in - NNE 19.6 mph 26.5 mph N/A   Unknown
1:56 PM 75.9 °F 52.0 °F 43% 30.00 in - NE 24.2 mph 28.8 mph N/A   Unknown
2:56 PM 77.0 °F 51.1 °F 40% 29.99 in - NNE 17.3 mph 25.3 mph N/A   Unknown
3:56 PM 80.1 °F 51.1 °F 36% 29.96 in - NNE 19.6 mph 27.6 mph N/A   Unknown
4:56 PM 81.0 °F 48.0 °F 31% 29.96 in - NNE 18.4 mph 27.6 mph N/A   Unknown
5:56 PM 79.0 °F 45.0 °F 30% 29.99 in - North 15.0 mph 23.0 mph N/A   Unknown
6:56 PM 77.0 °F 41.0 °F 28% 30.00 in - North 17.3 mph - N/A   Unknown
7:56 PM 72.0 °F 41.0 °F 33% 30.03 in - North 9.2 mph - N/A   Unknown
8:56 PM 64.9 °F 39.0 °F 39% 30.05 in - North 8.1 mph - N/A   Unknown
9:56 PM 60.1 °F 37.9 °F 44% 30.06 in - NNE 4.6 mph - N/A   Unknown
10:56 PM 55.9 °F 37.9 °F 51% 30.09 in - North 9.2 mph - N/A   Unknown
11:56 PM 54.0 °F 37.0 °F 53% 30.08 in - NNE 5.8 mph - N/A   Unknown